Alice Springs, Australia

8:45 PM ACST on October 15, 2019 (GMT +0930)
Alice Springs

Weather History for YBAS - August, 2019

Change the Weather History Date:

Friday, August 23, 2019

  Actual Average Record
Temperature  
Mean Temperature 55 °F -  
Max Temperature 75 °F 78 °F 87 °F (2006)
Min Temperature 35 °F 48 °F 33 °F (2008)
Degree Days  
Heating Degree Days 10    
Growing Degree Days 5 (Base 50)    
Moisture  
Dew Point 24 °F    
Average Humidity 28    
Maximum Humidity 56    
Minimum Humidity 7    
Precipitation  
Precipitation 0.00 in 0.01 in - ()
Sea Level Pressure  
Sea Level Pressure 30.18 in    
Wind  
Wind Speed 4 mph ()    
Max Wind Speed 15 mph    
Max Gust Speed -    
Visibility 6.2 miles    
Events      
Averages and records for this station are not official NWS values.
T = Trace of Precipitation, MM = Missing Value Source: Averaged Metar Reports

Daily Weather History Graph

Daily Weather History Graph

Search for Another Location

Airport or City:

Astronomy

Aug. 23, 2019 Rise Set
Actual Time 6:54 AM ACST 6:20 PM ACST
Civil Twilight 6:31 AM ACST 6:43 PM ACST
Nautical Twilight 6:04 AM ACST 7:09 PM ACST
Astronomical Twilight 5:38 AM ACST 7:36 PM ACST
Moon No Moon Rise 11:31 AM ACST (8/23)
Length of Visible Light 12h 11m
Length of Day
11h 25m
Waning Gibbous, 55% of the Moon is Illuminated
Aug 23
Waning Gibbous
Aug 24
Last Quarter
Aug 30
New
Sep 6
First Quarter
Sep 14
Full

Hourly Weather History & Observations

Time (ACST) Temp. Windchill Dew Point Humidity Pressure Visibility Wind Dir Wind Speed Gust Speed Precip Events Conditions
12:00 AM 48 °F - 23 °F 25% 30.26 in - NNW 3.5 mph - -   Clear
12:30 AM 45 °F - 23 °F 28% 30.25 in - North 1.2 mph - -  
12:30 AM 44.6 °F - 23.0 °F 43% 30.27 in 6.2 mi North 1.2 mph - N/A   Unknown
1:00 AM 42.8 °F - 19.4 °F 39% 30.24 in 6.2 mi Calm Calm - N/A   Unknown
1:30 AM 42.8 °F - 21.2 °F 42% 30.24 in 6.2 mi WNW 2.3 mph - N/A   Unknown
2:00 AM 42.8 °F 40.1 °F 23.0 °F 46% 30.24 in 6.2 mi West 4.6 mph - N/A   Unknown
2:30 AM 42 °F - 21 °F 30% 30.23 in - NW 5.8 mph - -  
2:30 AM 41.0 °F 37.1 °F 21.2 °F 45% 30.24 in 6.2 mi NW 5.8 mph - N/A   Unknown
3:00 AM 40 °F - 22 °F 36% 30.22 in - Calm Calm - -   Clear
3:30 AM 40 °F - 23 °F 38% 30.22 in - NW 4.6 mph - -  
3:30 AM 39.2 °F 35.9 °F 23.0 °F 52% 30.21 in 6.2 mi NW 4.6 mph - N/A   Unknown
4:00 AM 39.2 °F 35.0 °F 21.2 °F 49% 30.21 in 6.2 mi WNW 5.8 mph - N/A   Unknown
4:30 AM 39.2 °F 35.9 °F 21.2 °F 49% 30.21 in 6.2 mi WNW 4.6 mph - N/A   Unknown
5:30 AM 37.4 °F 32.8 °F 21.2 °F 52% 30.21 in 6.2 mi WNW 5.8 mph - N/A   Unknown
6:00 AM 36 °F - 21 °F 41% 30.22 in - WNW 5.8 mph - -   Clear
6:00 AM 37.4 °F 32.8 °F 21.2 °F 52% 30.24 in 6.2 mi WNW 5.8 mph - N/A   Unknown
6:30 AM 36 °F - 22 °F 44% 30.23 in - NW 4.6 mph - -  
6:30 AM 37.4 °F 33.8 °F 21.2 °F 52% 30.24 in 6.2 mi NW 4.6 mph - N/A   Unknown
7:00 AM 35.6 °F 32.8 °F 21.2 °F 56% 30.24 in 6.2 mi NW 3.5 mph - N/A   Unknown
7:30 AM 37.4 °F 34.9 °F 21.2 °F 52% 30.24 in 6.2 mi WNW 3.5 mph - N/A   Unknown
8:00 AM 44.6 °F 42.2 °F 24.8 °F 46% 30.24 in 6.2 mi West 4.6 mph - N/A   Unknown
8:30 AM 49 °F - 26 °F 28% 30.25 in - Calm Calm - -  
8:30 AM 48.2 °F - 26.6 °F 43% 30.27 in - Calm Calm - N/A   Clear
9:00 AM 55 °F - 28 °F 23% 30.25 in - ENE 3.5 mph - -   Clear
9:00 AM 55.4 °F - 28.4 °F 36% 30.27 in 6.2 mi ENE 3.5 mph - N/A   Unknown
9:30 AM 60 °F - 33 °F 24% 30.25 in - ENE 10.4 mph - -  
9:30 AM 59.0 °F - 32.0 °F 36% 30.27 in - ENE 10.4 mph - N/A   Clear
10:00 AM 62.6 °F - 32.0 °F 32% 30.24 in - ENE 12.7 mph - N/A   Clear
10:30 AM 64.4 °F - 30.2 °F 28% 30.24 in - ENE 15.0 mph - N/A   Clear
11:00 AM 64.4 °F - 32.0 °F 30% 30.24 in - East 10.4 mph - N/A   Clear
11:30 AM 66 °F - 31 °F 16% 30.21 in - East 8.1 mph - -  
11:30 AM 66.2 °F - 30.2 °F 26% 30.21 in - East 8.1 mph - N/A   Clear
12:00 PM 68.0 °F - 30.2 °F 24% 30.21 in 6.2 mi ENE 8.1 mph - N/A   Unknown
12:30 PM 69 °F - 28 °F 12% 30.17 in - NE 5.8 mph - -  
12:30 PM 69.8 °F - 26.6 °F 20% 30.18 in 6.2 mi NE 5.8 mph - N/A   Unknown
1:30 PM 71.6 °F - 24.8 °F 17% 30.15 in 6.2 mi NNW 4.6 mph - N/A   Unknown
2:00 PM 73.4 °F - 24.8 °F 16% 30.12 in 6.2 mi ENE 8.1 mph - N/A   Unknown
2:30 PM 75 °F - 24 °F 7% 30.11 in - North 5.8 mph - -  
2:30 PM 75.2 °F - 24.8 °F 15% 30.12 in 6.2 mi North 5.8 mph - N/A   Unknown
3:00 PM 74 °F - 23 °F 7% 30.09 in - WNW 4.6 mph - -   Clear
3:00 PM 73.4 °F - 23.0 °F 15% 30.09 in 6.2 mi WNW 4.6 mph - N/A   Unknown
3:30 PM 75 °F - 24 °F 7% 30.08 in - SSE 9.2 mph - -  
3:30 PM 75.2 °F - 24.8 °F 15% 30.09 in 6.2 mi SSE 9.2 mph - N/A   Unknown
4:00 PM 75.2 °F - 24.8 °F 15% 30.09 in 6.2 mi South 8.1 mph - N/A   Unknown
4:30 PM 73.4 °F - 23.0 °F 15% 30.06 in 6.2 mi SSW 6.9 mph - N/A   Unknown
5:00 PM 73.4 °F - 23.0 °F 15% 30.09 in 6.2 mi SSW 4.6 mph - N/A   Unknown
5:30 PM 73 °F - 24 °F 8% 30.07 in - East 10.4 mph - -  
5:30 PM 73.4 °F - 24.8 °F 16% 30.09 in 6.2 mi East 10.4 mph - N/A   Unknown
6:00 PM 72 °F - 25 °F 9% 30.08 in - ESE 8.1 mph - -   Clear
6:00 PM 71.6 °F - 24.8 °F 17% 30.09 in 6.2 mi ESE 8.1 mph - N/A   Unknown
6:30 PM 68 °F - 24 °F 10% 30.09 in - SE 6.9 mph - -  
6:30 PM 68.0 °F - 24.8 °F 20% 30.09 in 6.2 mi SE 6.9 mph - N/A   Unknown
7:30 PM 62.6 °F - 24.8 °F 24% 30.12 in 6.2 mi ESE 5.8 mph - N/A   Unknown
8:00 PM 62.6 °F - 23.0 °F 22% 30.12 in 6.2 mi SSE 3.5 mph - N/A   Unknown
8:30 PM 58 °F - 22 °F 14% 30.12 in - South 4.6 mph - -  
8:30 PM 59.0 °F - 21.2 °F 23% 30.12 in 6.2 mi South 4.6 mph - N/A   Unknown
9:00 PM 58 °F - 25 °F 17% 30.13 in - ESE 2.3 mph - -   Clear
9:00 PM 57.2 °F - 24.8 °F 29% 30.15 in 6.2 mi ESE 2.3 mph - N/A   Unknown
9:30 PM 57 °F - 24 °F 16% 30.13 in - ENE 6.9 mph - -  
9:30 PM 57.2 °F - 23.0 °F 27% 30.15 in 6.2 mi ENE 6.9 mph - N/A   Unknown
10:00 PM 53.6 °F - 23.0 °F 30% 30.15 in 6.2 mi NNE 2.3 mph - N/A   Unknown
10:30 PM 51.8 °F - 21.2 °F 30% 30.15 in 6.2 mi WNW 3.5 mph - N/A   Unknown
11:00 PM 51.8 °F - 21.2 °F 30% 30.15 in 6.2 mi Calm Calm - N/A   Unknown
11:30 PM 50 °F - 21 °F 20% 30.13 in - West 4.6 mph - -  
11:30 PM 50.0 °F - 21.2 °F 32% 30.15 in 6.2 mi West 4.6 mph - N/A   Unknown